| time (UTC) | temp F | wind direction | speed MPH | gust MPH | rain 1hr in | rain 24hr in | rain mn in | humidity % | barometer mb |
| 20260507145829 | 44 | 90 | 1.0 | 1.0 | 0.00 | 0.00 | 0.00 | 42 | 1022.9 |
| 20260507145325 | 42 | 121 | 0.0 | 0.0 | 0.00 | 0.00 | 0.00 | 55 | 1023.2 |
| 20260507144823 | 40 | 107 | 0.0 | 0.0 | 0.00 | 0.00 | 0.00 | 56 | 1023.4 |
| 20260507144320 | 39 | 89 | 1.0 | 2.0 | 0.00 | 0.00 | 0.00 | 57 | 1023.2 |
| 20260507143816 | 40 | 113 | 0.0 | 0.0 | 0.00 | 0.00 | 0.00 | 63 | 1023.2 |
| 20260507143314 | 40 | 142 | 0.0 | 0.0 | 0.00 | 0.00 | 0.00 | 71 | 1023.5 |
| 20260507142809 | 39 | 113 | 0.0 | 0.0 | 0.00 | 0.00 | 0.00 | 71 | 1023.2 |
| 20260507142307 | 39 | 112 | 0.0 | 0.0 | 0.00 | 0.00 | 0.00 | 74 | 1023.4 |
| 20260507141803 | 38 | 146 | 0.0 | 0.0 | 0.00 | 0.00 | 0.00 | 76 | 1023.2 |
| 20260507141300 | 37 | 114 | 1.0 | 1.0 | 0.00 | 0.00 | 0.00 | 73 | 1023.6 |
| 20260507140755 | 36 | 102 | 0.0 | 0.0 | 0.00 | 0.00 | 0.00 | 82 | 1023.8 |
| 20260507140253 | 36 | 107 | 0.0 | 0.0 | 0.00 | 0.00 | 0.00 | 74 | 1023.6 |
| 20260507135750 | 37 | 106 | 0.0 | 0.0 | 0.00 | 0.00 | 0.00 | 67 | 1024.1 |
| 20260507135247 | 39 | 129 | 0.0 | 0.0 | 0.00 | 0.00 | 0.00 | 66 | 1023.8 |
| 20260507134744 | 37 | 124 | 0.0 | 0.0 | 0.00 | 0.00 | 0.00 | 66 | 1023.8 |
| 20260507134240 | 35 | 129 | 0.0 | 0.0 | 0.00 | 0.00 | 0.00 | 68 | 1023.7 |
| 20260507133736 | 33 | 90 | 1.0 | 1.0 | 0.00 | 0.00 | 0.00 | 70 | 1023.7 |
| 20260507133233 | 33 | 146 | 0.0 | 0.0 | 0.00 | 0.00 | 0.00 | 73 | 1023.8 |
| 20260507132731 | 31 | 149 | 0.0 | 0.0 | 0.00 | 0.00 | 0.00 | 80 | 1023.8 |
| 20260507132227 | 30 | 142 | 0.0 | 0.0 | 0.00 | 0.00 | 0.00 | 80 | 1023.7 |
| 20260507131724 | 30 | 107 | 0.0 | 0.0 | 0.00 | 0.00 | 0.00 | 80 | 1023.5 |
| 20260507131221 | 28 | 142 | 0.0 | 0.0 | 0.00 | 0.00 | 0.00 | 79 | 1023.6 |
| 20260507130718 | 28 | 101 | 0.0 | 0.0 | 0.00 | 0.00 | 0.00 | 81 | 1023.8 |
| 20260507130216 | 27 | 166 | 0.0 | 0.0 | 0.00 | 0.00 | 0.00 | 81 | 1023.5 |
| 20260507125714 | 26 | 174 | 0.0 | 0.0 | 0.00 | 0.00 | 0.00 | 82 | 1023.7 |
| 20260507125212 | 27 | 171 | 0.0 | 0.0 | 0.00 | 0.00 | 0.00 | 83 | 1023.6 |
| 20260507124708 | 26 | 107 | 0.0 | 1.0 | 0.00 | 0.00 | 0.00 | 81 | 1023.8 |
| 20260507124205 | 26 | 180 | 0.0 | 0.0 | 0.00 | 0.00 | 0.00 | 79 | 1023.5 |
| 20260507123703 | 25 | 181 | 0.0 | 0.0 | 0.00 | 0.00 | 0.00 | 78 | 1023.7 |
| 20260507123200 | 25 | 156 | 0.0 | 0.0 | 0.00 | 0.00 | 0.00 | 79 | 1023.7 |
| 20260507122655 | 26 | 156 | 0.0 | 0.0 | 0.00 | 0.00 | 0.00 | 80 | 1023.7 |
| 20260507122151 | 26 | 186 | 0.0 | 0.0 | 0.00 | 0.00 | 0.00 | 81 | 1023.5 |
| 20260507121647 | 25 | 159 | 0.0 | 0.0 | 0.00 | 0.00 | 0.00 | 78 | 1023.5 |
| 20260507121143 | 26 | 100 | 0.0 | 0.0 | 0.00 | 0.00 | 0.00 | 81 | 1023.2 |
| 20260507120640 | 25 | 154 | 0.0 | 0.0 | 0.00 | 0.00 | 0.00 | 83 | 1023.2 |
| 20260507120136 | 25 | 159 | 0.0 | 0.0 | 0.00 | 0.00 | 0.00 | 81 | 1023.4 |
| 20260507115632 | 25 | 156 | 0.0 | 0.0 | 0.00 | 0.00 | 0.00 | 79 | 1023.4 |
| 20260507115128 | 26 | 155 | 0.0 | 0.0 | 0.00 | 0.00 | 0.00 | 80 | 1023.5 |
| 20260507114624 | 26 | 181 | 0.0 | 0.0 | 0.00 | 0.00 | 0.00 | 79 | 1023.5 |
| 20260507114122 | 26 | 122 | 0.0 | 0.0 | 0.00 | 0.00 | 0.00 | 78 | 1023.1 |
| 20260507113619 | 26 | 182 | 0.0 | 0.0 | 0.00 | 0.00 | 0.00 | 79 | 1023.2 |
| 20260507113116 | 26 | 189 | 0.0 | 0.0 | 0.00 | 0.00 | 0.00 | 77 | 1023.4 |
| 20260507112614 | 26 | 200 | 0.0 | 0.0 | 0.00 | 0.00 | 0.00 | 77 | 1023.2 |
| 20260507112110 | 27 | 193 | 0.0 | 0.0 | 0.00 | 0.00 | 0.00 | 77 | 1023.2 |
| 20260507111608 | 27 | 108 | 0.0 | 0.0 | 0.00 | 0.00 | 0.00 | 77 | 1022.9 |
| 20260507111104 | 27 | 123 | 0.0 | 0.0 | 0.00 | 0.00 | 0.00 | 82 | 1023.4 |
| 20260507110601 | 26 | 181 | 0.0 | 0.0 | 0.00 | 0.00 | 0.00 | 79 | 1023.1 |
| 20260507110057 | 26 | 221 | 0.0 | 0.0 | 0.00 | 0.00 | 0.00 | 78 | 1023.0 |
| 20260507105554 | 26 | 151 | 0.0 | 0.0 | 0.00 | 0.00 | 0.00 | 79 | 1022.8 |
| 20260507105050 | 26 | 121 | 0.0 | 0.0 | 0.00 | 0.00 | 0.00 | 78 | 1022.6 |
| 20260507104548 | 27 | 195 | 0.0 | 0.0 | 0.00 | 0.00 | 0.00 | 77 | 1023.2 |
| 20260507104044 | 27 | 158 | 0.0 | 0.0 | 0.00 | 0.00 | 0.00 | 77 | 1022.9 |
| 20260507103540 | 27 | 199 | 0.0 | 0.0 | 0.00 | 0.00 | 0.00 | 74 | 1023.0 |
| 20260507103037 | 27 | 128 | 0.0 | 0.0 | 0.00 | 0.00 | 0.00 | 80 | 1023.0 |
| 20260507102533 | 27 | 201 | 0.0 | 0.0 | 0.00 | 0.00 | 0.00 | 78 | 1023.1 |
| 20260507102031 | 27 | 71 | 0.0 | 0.0 | 0.00 | 0.00 | 0.00 | 79 | 1022.8 |
| 20260507101525 | 27 | 96 | 0.0 | 1.0 | 0.00 | 0.00 | 0.00 | 81 | 1022.5 |
| 20260507101022 | 27 | 194 | 0.0 | 0.0 | 0.00 | 0.00 | 0.00 | 78 | 1022.6 |
| 20260507100519 | 27 | 166 | 0.0 | 0.0 | 0.00 | 0.00 | 0.00 | 79 | 1022.6 |
| 20260507100017 | 27 | 65 | 0.0 | 0.0 | 0.00 | 0.00 | 0.00 | 77 | 1022.9 |
| 20260507095515 | 28 | 144 | 0.0 | 0.0 | 0.00 | 0.00 | 0.00 | 81 | 1022.6 |
| 20260507095011 | 28 | 143 | 0.0 | 0.0 | 0.00 | 0.00 | 0.00 | 81 | 1022.6 |
| 20260507094507 | 27 | 171 | 0.0 | 0.0 | 0.00 | 0.00 | 0.00 | 79 | 1022.8 |
| 20260507094005 | 28 | 159 | 0.0 | 0.0 | 0.00 | 0.00 | 0.00 | 78 | 1022.5 |
| 20260507093502 | 28 | 148 | 0.0 | 0.0 | 0.00 | 0.00 | 0.00 | 79 | 1022.5 |
| 20260507093000 | 28 | 186 | 0.0 | 0.0 | 0.00 | 0.00 | 0.00 | 78 | 1022.5 |
| 20260507092456 | 28 | 142 | 0.0 | 0.0 | 0.00 | 0.00 | 0.00 | 79 | 1022.4 |
| 20260507091953 | 28 | 161 | 0.0 | 0.0 | 0.00 | 0.00 | 0.00 | 76 | 1022.6 |
| 20260507091450 | 28 | 197 | 0.0 | 0.0 | 0.00 | 0.00 | 0.00 | 76 | 1022.4 |
| 20260507090946 | 28 | 173 | 0.0 | 0.0 | 0.00 | 0.00 | 0.00 | 75 | 1022.5 |
| 20260507090442 | 28 | 155 | 0.0 | 0.0 | 0.00 | 0.00 | 0.00 | 77 | 1022.6 |
| 20260507085939 | 28 | 85 | 0.0 | 0.0 | 0.00 | 0.00 | 0.00 | 75 | 1022.5 |
| 20260507085436 | 29 | 109 | 0.0 | 0.0 | 0.00 | 0.00 | 0.00 | 78 | 1023.0 |
| 20260507084933 | 28 | 169 | 0.0 | 0.0 | 0.00 | 0.00 | 0.00 | 75 | 1022.6 |
| 20260507084429 | 29 | 102 | 0.0 | 0.0 | 0.00 | 0.00 | 0.00 | 76 | 1022.8 |
| 20260507083926 | 29 | 25 | 1.0 | 2.0 | 0.00 | 0.00 | 0.00 | 77 | 1022.6 |
| 20260507083423 | 28 | 143 | 0.0 | 0.0 | 0.00 | 0.00 | 0.00 | 77 | 1022.6 |
| 20260507082919 | 28 | 181 | 0.0 | 0.0 | 0.00 | 0.00 | 0.00 | 76 | 1022.5 |
| 20260507082415 | 29 | 200 | 0.0 | 0.0 | 0.00 | 0.00 | 0.00 | 75 | 1022.5 |
| 20260507081912 | 29 | 133 | 0.0 | 0.0 | 0.00 | 0.00 | 0.00 | 72 | 1022.6 |
| 20260507081408 | 30 | 129 | 0.0 | 0.0 | 0.00 | 0.00 | 0.00 | 76 | 1022.8 |
| 20260507080905 | 30 | 144 | 0.0 | 1.0 | 0.00 | 0.00 | 0.00 | 72 | 1023.0 |
| 20260507080402 | 30 | 188 | 0.0 | 0.0 | 0.00 | 0.00 | 0.00 | 70 | 1022.5 |
| 20260507075857 | 30 | 198 | 0.0 | 0.0 | 0.00 | 0.00 | 0.00 | 69 | 1022.6 |
| 20260507075353 | 29 | 243 | 1.0 | 1.0 | 0.00 | 0.00 | 0.00 | 72 | 1022.6 |
| 20260507074850 | 29 | 140 | 0.0 | 0.0 | 0.00 | 0.00 | 0.00 | 73 | 1022.6 |
| 20260507074347 | 30 | 121 | 0.0 | 0.0 | 0.00 | 0.00 | 0.00 | 78 | 1022.6 |
| 20260507073844 | 30 | 109 | 0.0 | 1.0 | 0.00 | 0.00 | 0.00 | 76 | 1022.8 |
| 20260507073341 | 30 | 174 | 0.0 | 0.0 | 0.00 | 0.00 | 0.00 | 71 | 1022.8 |
| 20260507072838 | 30 | 168 | 0.0 | 0.0 | 0.00 | 0.00 | 0.00 | 71 | 1022.6 |
| 20260507072336 | 30 | 160 | 0.0 | 0.0 | 0.00 | 0.00 | 0.00 | 71 | 1022.4 |
| 20260507071833 | 31 | 167 | 0.0 | 0.0 | 0.00 | 0.00 | 0.00 | 70 | 1022.5 |
| 20260507071330 | 31 | 62 | 0.0 | 0.0 | 0.00 | 0.00 | 0.00 | 69 | 1022.8 |
| 20260507070826 | 31 | 143 | 0.0 | 0.0 | 0.00 | 0.00 | 0.00 | 69 | 1022.4 |
| 20260507070324 | 31 | 142 | 0.0 | 0.0 | 0.00 | 0.00 | 0.00 | 67 | 1022.3 |
| 20260507065820 | 32 | 182 | 0.0 | 0.0 | 0.00 | 0.00 | 0.00 | 66 | 1022.4 |
| 20260507065317 | 32 | 186 | 0.0 | 0.0 | 0.00 | 0.00 | 0.00 | 65 | 1022.5 |
| 20260507064814 | 32 | 217 | 0.0 | 0.0 | 0.00 | 0.00 | 0.00 | 64 | 1022.4 |
| 20260507064313 | 32 | 219 | 0.0 | 0.0 | 0.00 | 0.00 | 0.00 | 66 | 1022.4 |
| 20260507063810 | 33 | 201 | 0.0 | 0.0 | 0.00 | 0.00 | 0.00 | 63 | 1022.5 |
| 20260507063307 | 34 | 181 | 0.0 | 0.0 | 0.00 | 0.00 | 0.00 | 65 | 1022.3 |
| 20260507062803 | 33 | 238 | 0.0 | 0.0 | 0.00 | 0.00 | 0.00 | 65 | 1022.3 |
| 20260507062301 | 33 | 277 | 0.0 | 1.0 | 0.00 | 0.00 | 0.00 | 64 | 1022.0 |
| 20260507061759 | 32 | 217 | 0.0 | 0.0 | 0.00 | 0.00 | 0.00 | 65 | 1022.1 |
| 20260507061256 | 33 | 90 | 0.0 | 0.0 | 0.00 | 0.00 | 0.00 | 67 | 1022.1 |
| 20260507060754 | 33 | 106 | 0.0 | 0.0 | 0.00 | 0.00 | 0.00 | 69 | 1022.3 |
| 20260507060250 | 33 | 197 | 0.0 | 0.0 | 0.00 | 0.00 | 0.00 | 68 | 1022.3 |
| 20260507055747 | 33 | 120 | 0.0 | 0.0 | 0.00 | 0.06 | 0.06 | 69 | 1021.9 |
| 20260507055242 | 33 | 202 | 0.0 | 0.0 | 0.00 | 0.06 | 0.06 | 69 | 1021.8 |
| 20260507054739 | 33 | 138 | 0.0 | 0.0 | 0.00 | 0.06 | 0.06 | 72 | 1022.0 |
| 20260507054236 | 33 | 212 | 0.0 | 0.0 | 0.00 | 0.06 | 0.06 | 68 | 1021.8 |
| 20260507053733 | 33 | 138 | 0.0 | 0.0 | 0.00 | 0.06 | 0.06 | 68 | 1021.9 |
| 20260507053231 | 33 | 209 | 0.0 | 0.0 | 0.00 | 0.06 | 0.06 | 68 | 1021.8 |
| 20260507052730 | 34 | 208 | 0.0 | 0.0 | 0.00 | 0.06 | 0.06 | 68 | 1021.5 |
| 20260507052225 | 34 | 142 | 0.0 | 0.0 | 0.00 | 0.06 | 0.06 | 69 | 1021.8 |
| 20260507051724 | 35 | 138 | 0.0 | 0.0 | 0.00 | 0.06 | 0.06 | 65 | 1021.5 |
| 20260507051220 | 35 | 225 | 0.0 | 0.0 | 0.00 | 0.06 | 0.06 | 62 | 1021.4 |
| 20260507050716 | 34 | 245 | 1.0 | 1.0 | 0.00 | 0.06 | 0.06 | 62 | 1021.3 |
| 20260507050214 | 34 | 237 | 0.0 | 0.0 | 0.00 | 0.06 | 0.06 | 67 | 1021.4 |
| 20260507045710 | 35 | 181 | 0.0 | 0.0 | 0.00 | 0.06 | 0.06 | 67 | 1021.4 |
| 20260507045207 | 36 | 138 | 0.0 | 0.0 | 0.00 | 0.06 | 0.06 | 67 | 1021.3 |
| 20260507044704 | 35 | 182 | 0.0 | 0.0 | 0.00 | 0.06 | 0.06 | 57 | 1021.5 |
| 20260507044201 | 35 | 178 | 0.0 | 0.0 | 0.00 | 0.06 | 0.06 | 60 | 1021.5 |
| 20260507043657 | 36 | 178 | 0.0 | 0.0 | 0.00 | 0.06 | 0.06 | 58 | 1021.3 |
| 20260507043154 | 36 | 173 | 0.0 | 0.0 | 0.00 | 0.06 | 0.06 | 61 | 1021.4 |
| 20260507042650 | 37 | 78 | 0.0 | 1.0 | 0.00 | 0.06 | 0.06 | 59 | 1021.3 |
| 20260507042145 | 38 | 148 | 0.0 | 0.0 | 0.00 | 0.06 | 0.06 | 63 | 1021.0 |
| 20260507041643 | 39 | 196 | 0.0 | 0.0 | 0.00 | 0.06 | 0.06 | 51 | 1020.9 |
| 20260507041138 | 39 | 140 | 0.0 | 0.0 | 0.00 | 0.06 | 0.06 | 55 | 1020.7 |
| 20260507040636 | 39 | 178 | 0.0 | 0.0 | 0.00 | 0.06 | 0.06 | 51 | 1020.8 |
| 20260507040132 | 40 | 196 | 0.0 | 0.0 | 0.00 | 0.06 | 0.06 | 49 | 1020.6 |
| 20260507035628 | 41 | 138 | 0.0 | 0.0 | 0.00 | 0.06 | 0.06 | 48 | 1020.7 |
| 20260507035124 | 41 | 216 | 0.0 | 0.0 | 0.00 | 0.06 | 0.06 | 48 | 1020.4 |
| 20260507034621 | 42 | 211 | 0.0 | 0.0 | 0.00 | 0.06 | 0.06 | 45 | 1020.3 |
| 20260507034119 | 42 | 253 | 0.0 | 1.0 | 0.00 | 0.06 | 0.06 | 42 | 1020.3 |
| 20260507033617 | 41 | 244 | 0.0 | 0.0 | 0.00 | 0.06 | 0.06 | 48 | 1020.2 |
| 20260507033114 | 41 | 100 | 0.0 | 0.0 | 0.00 | 0.06 | 0.06 | 42 | 1020.4 |
| 20260507032611 | 41 | 121 | 0.0 | 0.0 | 0.00 | 0.06 | 0.06 | 45 | 1020.1 |
| 20260507032107 | 41 | 183 | 0.0 | 0.0 | 0.00 | 0.06 | 0.06 | 47 | 1019.9 |
| 20260507031604 | 42 | 170 | 0.0 | 0.0 | 0.00 | 0.06 | 0.06 | 45 | 1019.8 |
| 20260507031101 | 42 | 184 | 0.0 | 0.0 | 0.00 | 0.06 | 0.06 | 46 | 1019.9 |
| 20260507030557 | 43 | 163 | 0.0 | 0.0 | 0.00 | 0.06 | 0.06 | 42 | 1019.7 |
| 20260507030055 | 44 | 121 | 0.0 | 0.0 | 0.00 | 0.06 | 0.06 | 44 | 1019.7 |
| 20260507025552 | 45 | 291 | 0.0 | 1.0 | 0.00 | 0.06 | 0.06 | 39 | 1019.5 |
| 20260507025049 | 46 | 113 | 0.0 | 0.0 | 0.00 | 0.06 | 0.06 | 38 | 1019.3 |
| 20260507024547 | 47 | 141 | 0.0 | 0.0 | 0.00 | 0.06 | 0.06 | 34 | 1019.6 |
| 20260507024044 | 46 | 11 | 0.0 | 1.0 | 0.00 | 0.06 | 0.06 | 33 | 1019.6 |
| 20260507023539 | 46 | 324 | 0.0 | 0.0 | 0.00 | 0.06 | 0.06 | 34 | 1019.2 |
| 20260507023037 | 45 | 3 | 0.0 | 0.0 | 0.00 | 0.06 | 0.06 | 34 | 1019.2 |
| 20260507022534 | 44 | 174 | 0.0 | 0.0 | 0.00 | 0.06 | 0.06 | 39 | 1018.8 |
| 20260507022029 | 45 | 173 | 0.0 | 0.0 | 0.00 | 0.06 | 0.06 | 36 | 1019.1 |
| 20260507021525 | 45 | 136 | 0.0 | 0.0 | 0.00 | 0.06 | 0.06 | 34 | 1018.8 |
| 20260507021022 | 46 | 221 | 0.0 | 0.0 | 0.00 | 0.06 | 0.06 | 38 | 1018.7 |
| 20260507020520 | 45 | 248 | 0.0 | 1.0 | 0.00 | 0.06 | 0.06 | 37 | 1018.7 |
| 20260507020016 | 46 | 179 | 0.0 | 0.0 | 0.00 | 0.06 | 0.06 | 37 | 1018.6 |
| 20260507015515 | 47 | 193 | 0.0 | 0.0 | 0.00 | 0.06 | 0.06 | 36 | 1018.6 |
| 20260507015012 | 48 | 230 | 0.0 | 0.0 | 0.00 | 0.06 | 0.06 | 38 | 1018.4 |
| 20260507014508 | 49 | 197 | 0.0 | 0.0 | 0.00 | 0.06 | 0.06 | 35 | 1018.6 |
| 20260507014004 | 48 | 8 | 0.0 | 1.0 | 0.00 | 0.06 | 0.06 | 32 | 1018.1 |
| 20260507013501 | 48 | 259 | 0.0 | 0.0 | 0.00 | 0.06 | 0.06 | 33 | 1018.4 |
| 20260507012958 | 49 | 192 | 0.0 | 0.0 | 0.00 | 0.06 | 0.06 | 35 | 1018.1 |
| 20260507012455 | 50 | 150 | 0.0 | 0.0 | 0.00 | 0.06 | 0.06 | 31 | 1018.1 |
| 20260507011951 | 50 | 86 | 0.0 | 0.0 | 0.00 | 0.06 | 0.06 | 32 | 1017.9 |
| 20260507011448 | 50 | 39 | 0.0 | 1.0 | 0.00 | 0.06 | 0.06 | 29 | 1017.6 |
| 20260507010944 | 50 | 236 | 1.0 | 2.0 | 0.00 | 0.06 | 0.06 | 28 | 1017.5 |
| 20260507010439 | 51 | 215 | 0.0 | 0.0 | 0.00 | 0.06 | 0.06 | 29 | 1017.4 |
| 20260507005936 | 51 | 351 | 2.0 | 5.0 | 0.00 | 0.06 | 0.06 | 27 | 1017.4 |
| 20260507005433 | 52 | 111 | 0.0 | 1.0 | 0.00 | 0.06 | 0.06 | 26 | 1017.3 |
| 20260507004930 | 52 | 51 | 3.0 | 3.0 | 0.00 | 0.06 | 0.06 | 27 | 1017.1 |
| 20260507004426 | 52 | 18 | 3.0 | 3.0 | 0.00 | 0.06 | 0.06 | 27 | 1017.3 |
| 20260507003924 | 52 | 87 | 1.0 | 1.0 | 0.00 | 0.06 | 0.06 | 25 | 1017.4 |
| 20260507003419 | 53 | 23 | 1.0 | 1.0 | 0.00 | 0.06 | 0.06 | 26 | 1017.1 |
| 20260507002914 | 54 | 305 | 4.0 | 6.0 | 0.00 | 0.06 | 0.06 | 24 | 1017.0 |
| 20260507002410 | 54 | 35 | 0.0 | 1.0 | 0.00 | 0.06 | 0.06 | 26 | 1017.0 |
| 20260507001908 | 54 | 77 | 3.0 | 3.0 | 0.00 | 0.06 | 0.06 | 28 | 1017.0 |
| 20260507001404 | 54 | 231 | 2.0 | 2.0 | 0.00 | 0.06 | 0.06 | 25 | 1016.7 |
| 20260507000902 | 55 | 61 | 3.0 | 6.0 | 0.00 | 0.06 | 0.06 | 27 | 1016.8 |
| 20260507000358 | 54 | 68 | 1.0 | 1.0 | 0.00 | 0.06 | 0.06 | 28 | 1016.7 |
| 20260506235853 | 55 | 24 | 3.0 | 3.0 | 0.00 | 0.06 | 0.06 | 27 | 1016.7 |
| 20260506235350 | 55 | 97 | 1.0 | 2.0 | 0.00 | 0.06 | 0.06 | 29 | 1016.4 |
| 20260506234846 | 55 | 92 | 2.0 | 3.0 | 0.00 | 0.06 | 0.06 | 27 | 1016.7 |
| 20260506234344 | 55 | 49 | 3.0 | 5.0 | 0.00 | 0.06 | 0.06 | 29 | 1016.3 |
| 20260506233842 | 55 | 74 | 4.0 | 7.0 | 0.00 | 0.06 | 0.06 | 30 | 1016.3 |
| 20260506233337 | 55 | 91 | 3.0 | 6.0 | 0.00 | 0.06 | 0.06 | 31 | 1016.2 |
| 20260506232835 | 55 | 64 | 1.0 | 2.0 | 0.00 | 0.06 | 0.06 | 30 | 1016.4 |
| 20260506232330 | 55 | 85 | 3.0 | 3.0 | 0.00 | 0.06 | 0.06 | 28 | 1016.0 |
| 20260506231827 | 56 | 50 | 0.0 | 0.0 | 0.00 | 0.06 | 0.06 | 30 | 1016.0 |
| 20260506231325 | 57 | 106 | 5.0 | 6.0 | 0.00 | 0.06 | 0.06 | 28 | 1016.2 |
| 20260506230822 | 57 | 301 | 1.0 | 1.0 | 0.00 | 0.06 | 0.06 | 28 | 1016.0 |
| 20260506230319 | 58 | 41 | 1.0 | 1.0 | 0.00 | 0.06 | 0.06 | 27 | 1015.9 |
| 20260506225814 | 57 | 46 | 2.0 | 3.0 | 0.00 | 0.06 | 0.06 | 30 | 1015.8 |
| 20260506225312 | 57 | 215 | 1.0 | 2.0 | 0.00 | 0.06 | 0.06 | 30 | 1015.9 |
| 20260506224809 | 57 | 72 | 2.0 | 3.0 | 0.00 | 0.06 | 0.06 | 32 | 1015.8 |
| 20260506224306 | 56 | 274 | 3.0 | 3.0 | 0.00 | 0.06 | 0.06 | 33 | 1015.9 |
| 20260506223802 | 56 | 276 | 2.0 | 5.0 | 0.00 | 0.06 | 0.06 | 32 | 1015.8 |
| 20260506223257 | 56 | 196 | 0.0 | 0.0 | 0.00 | 0.06 | 0.06 | 33 | 1015.8 |
| 20260506222755 | 55 | 57 | 4.0 | 6.0 | 0.00 | 0.06 | 0.06 | 34 | 1015.8 |
| 20260506222250 | 55 | 76 | 2.0 | 2.0 | 0.00 | 0.06 | 0.06 | 35 | 1015.8 |
| 20260506221748 | 56 | 219 | 1.0 | 2.0 | 0.00 | 0.06 | 0.06 | 34 | 1015.7 |
| 20260506221246 | 57 | 92 | 2.0 | 3.0 | 0.00 | 0.06 | 0.06 | 38 | 1015.6 |
| 20260506220743 | 58 | 313 | 1.0 | 2.0 | 0.00 | 0.06 | 0.06 | 38 | 1015.4 |
| 20260506220238 | 57 | 173 | 2.0 | 3.0 | 0.00 | 0.06 | 0.06 | 31 | 1015.6 |
| 20260506215735 | 58 | 304 | 2.0 | 2.0 | 0.00 | 0.06 | 0.06 | 33 | 1015.4 |
| 20260506215230 | 58 | 192 | 0.0 | 1.0 | 0.00 | 0.06 | 0.06 | 32 | 1015.2 |
| 20260506214722 | 58 | 239 | 3.0 | 7.0 | 0.00 | 0.06 | 0.06 | 30 | 1015.1 |
| 20260506214219 | 57 | 213 | 4.0 | 6.0 | 0.00 | 0.06 | 0.06 | 32 | 1015.1 |
| 20260506213717 | 58 | 305 | 8.0 | 9.0 | 0.00 | 0.06 | 0.06 | 29 | 1014.8 |
| 20260506213214 | 58 | 273 | 4.0 | 7.0 | 0.00 | 0.06 | 0.06 | 30 | 1015.2 |
| 20260506212711 | 57 | 234 | 4.0 | 6.0 | 0.00 | 0.06 | 0.06 | 30 | 1015.1 |
| 20260506212206 | 57 | 186 | 2.0 | 2.0 | 0.00 | 0.06 | 0.06 | 31 | 1015.4 |
| 20260506211702 | 57 | 246 | 6.0 | 8.0 | 0.00 | 0.06 | 0.06 | 31 | 1015.1 |
| 20260506211158 | 56 | 218 | 3.0 | 5.0 | 0.00 | 0.06 | 0.06 | 31 | 1015.4 |
| 20260506210655 | 57 | 359 | 9.0 | 13.0 | 0.00 | 0.06 | 0.06 | 32 | 1015.1 |
| 20260506210152 | 58 | 236 | 4.0 | 7.0 | 0.00 | 0.06 | 0.06 | 32 | 1014.7 |
| 20260506205649 | 59 | 55 | 3.0 | 6.0 | 0.00 | 0.06 | 0.06 | 33 | 1014.9 |
| 20260506205144 | 58 | 111 | 3.0 | 5.0 | 0.00 | 0.06 | 0.06 | 31 | 1014.3 |
| 20260506204642 | 59 | 229 | 2.0 | 2.0 | 0.00 | 0.06 | 0.06 | 29 | 1014.5 |
| 20260506204138 | 59 | 90 | 0.0 | 1.0 | 0.00 | 0.06 | 0.06 | 29 | 1014.6 |
| 20260506203637 | 58 | 281 | 3.0 | 6.0 | 0.00 | 0.06 | 0.06 | 33 | 1014.3 |
| 20260506203133 | 57 | 176 | 2.0 | 3.0 | 0.00 | 0.06 | 0.06 | 33 | 1014.5 |
| 20260506202632 | 57 | 305 | 3.0 | 3.0 | 0.00 | 0.06 | 0.06 | 37 | 1014.6 |
| 20260506202127 | 57 | 222 | 2.0 | 3.0 | 0.00 | 0.06 | 0.06 | 34 | 1014.5 |
| 20260506201625 | 58 | 154 | 3.0 | 3.0 | 0.00 | 0.06 | 0.06 | 38 | 1014.1 |
| 20260506201121 | 54 | 111 | 3.0 | 5.0 | 0.00 | 0.06 | 0.06 | 41 | 1014.2 |
| 20260506200617 | 54 | 267 | 2.0 | 2.0 | 0.00 | 0.06 | 0.06 | 40 | 1014.3 |
| 20260506200114 | 53 | 105 | 0.0 | 1.0 | 0.00 | 0.06 | 0.06 | 46 | 1014.5 |
| 20260506195611 | 50 | 106 | 3.0 | 5.0 | 0.00 | 0.06 | 0.06 | 47 | 1014.8 |
| 20260506195107 | 53 | 246 | 7.0 | 9.0 | 0.00 | 0.06 | 0.06 | 43 | 1014.8 |
| 20260506194605 | 56 | 220 | 5.0 | 7.0 | 0.00 | 0.06 | 0.06 | 38 | 1014.1 |
| 20260506194101 | 52 | 208 | 2.0 | 3.0 | 0.00 | 0.06 | 0.06 | 38 | 1013.7 |
| 20260506193559 | 53 | 6 | 3.0 | 6.0 | 0.00 | 0.06 | 0.06 | 42 | 1014.3 |
| 20260506193056 | 53 | 251 | 3.0 | 3.0 | 0.00 | 0.06 | 0.06 | 48 | 1014.0 |
| 20260506192553 | 52 | 105 | 0.0 | 0.0 | 0.00 | 0.06 | 0.06 | 55 | 1014.2 |
| 20260506192049 | 52 | 128 | 5.0 | 6.0 | 0.00 | 0.06 | 0.06 | 52 | 1013.6 |
| 20260506191545 | 55 | 78 | 1.0 | 2.0 | 0.00 | 0.06 | 0.06 | 56 | 1014.0 |
| 20260506191041 | 52 | 225 | 1.0 | 1.0 | 0.00 | 0.06 | 0.06 | 57 | 1013.8 |
| 20260506190539 | 50 | 289 | 0.0 | 1.0 | 0.00 | 0.06 | 0.06 | 64 | 1013.8 |
| 20260506190036 | 51 | 210 | 1.0 | 1.0 | 0.00 | 0.06 | 0.06 | 64 | 1014.0 |
| 20260506185533 | 50 | 176 | 0.0 | 1.0 | 0.00 | 0.06 | 0.06 | 64 | 1014.0 |
| 20260506185029 | 51 | 39 | 1.0 | 1.0 | 0.00 | 0.06 | 0.06 | 58 | 1014.1 |
| 20260506184527 | 52 | 95 | 0.0 | 1.0 | 0.00 | 0.06 | 0.06 | 65 | 1014.5 |
| 20260506184024 | 51 | 192 | 0.0 | 1.0 | 0.00 | 0.06 | 0.06 | 63 | 1014.7 |
| 20260506183520 | 50 | 263 | 1.0 | 1.0 | 0.00 | 0.06 | 0.06 | 65 | 1014.6 |
| 20260506183017 | 48 | 274 | 2.0 | 2.0 | 0.00 | 0.06 | 0.06 | 69 | 1014.7 |
| 20260506182514 | 47 | 274 | 2.0 | 2.0 | 0.00 | 0.06 | 0.06 | 73 | 1014.7 |
| 20260506182011 | 46 | 125 | 0.0 | 0.0 | 0.00 | 0.06 | 0.06 | 72 | 1015.3 |
| 20260506181509 | 46 | 129 | 0.0 | 0.0 | 0.00 | 0.06 | 0.06 | 77 | 1015.1 |
| 20260506181006 | 45 | 257 | 0.0 | 0.0 | 0.00 | 0.06 | 0.06 | 76 | 1015.4 |
| 20260506180502 | 44 | 74 | 1.0 | 1.0 | 0.00 | 0.06 | 0.06 | 78 | 1015.2 |
| 20260506175959 | 44 | 140 | 0.0 | 0.0 | 0.00 | 0.06 | 0.06 | 78 | 1015.4 |
| 20260506175455 | 44 | 122 | 1.0 | 1.0 | 0.00 | 0.06 | 0.06 | 78 | 1015.7 |
| 20260506174946 | 43 | 116 | 1.0 | 1.0 | 0.00 | 0.06 | 0.06 | 86 | 1015.4 |
| 20260506174444 | 41 | 105 | 0.0 | 0.0 | 0.07 | 0.06 | 0.06 | 90 | 1015.8 |
| 20260506173940 | 40 | 54 | 1.0 | 1.0 | 0.12 | 0.06 | 0.06 | 89 | 1015.8 |
| 20260506173438 | 40 | 121 | 0.0 | 0.0 | 0.19 | 0.06 | 0.06 | 87 | 1015.9 |
| 20260506172935 | 41 | 184 | 0.0 | 1.0 | 0.19 | 0.04 | 0.04 | 83 | 1016.3 |
| 20260506172432 | 41 | 129 | 2.0 | 2.0 | 0.14 | 0.02 | 0.02 | 82 | 1016.3 |
| 20260506171928 | 43 | 211 | 2.0 | 5.0 | 0.07 | 0.01 | 0.01 | 80 | 1016.0 |
| 20260506171426 | 49 | 358 | 5.0 | 7.0 | 0.00 | 0.00 | 0.00 | 59 | 1015.2 |
| 20260506170924 | 50 | 64 | 1.0 | 1.0 | 0.00 | 0.00 | 0.00 | 58 | 1014.2 |
| 20260506170419 | 50 | 122 | 0.0 | 0.0 | 0.00 | 0.00 | 0.00 | 61 | 1013.8 |
| 20260506165913 | 50 | 95 | 1.0 | 1.0 | 0.00 | 0.00 | 0.00 | 59 | 1013.7 |
| 20260506165411 | 50 | 53 | 0.0 | 1.0 | 0.00 | 0.00 | 0.00 | 55 | 1013.8 |
| 20260506164907 | 51 | 142 | 0.0 | 0.0 | 0.00 | 0.00 | 0.00 | 54 | 1013.5 |
| 20260506164403 | 51 | 315 | 1.0 | 1.0 | 0.00 | 0.00 | 0.00 | 55 | 1013.8 |
| 20260506163901 | 52 | 38 | 2.0 | 2.0 | 0.00 | 0.00 | 0.00 | 54 | 1013.4 |
| 20260506163356 | 53 | 97 | 2.0 | 3.0 | 0.00 | 0.00 | 0.00 | 51 | 1013.4 |
| 20260506162851 | 54 | 164 | 1.0 | 2.0 | 0.00 | 0.00 | 0.00 | 51 | 1013.5 |
| 20260506162349 | 54 | 74 | 3.0 | 5.0 | 0.00 | 0.00 | 0.00 | 51 | 1013.4 |
| 20260506161846 | 54 | 148 | 0.0 | 0.0 | 0.00 | 0.00 | 0.00 | 51 | 1013.8 |
| 20260506161343 | 52 | 59 | 2.0 | 3.0 | 0.00 | 0.00 | 0.00 | 55 | 1014.1 |
| 20260506160836 | 50 | 51 | 2.0 | 2.0 | 0.00 | 0.00 | 0.00 | 60 | 1014.2 |
| 20260506160332 | 49 | 97 | 0.0 | 0.0 | 0.00 | 0.00 | 0.00 | 66 | 1013.8 |
| 20260506155830 | 49 | 106 | 2.0 | 2.0 | 0.00 | 0.00 | 0.00 | 62 | 1013.8 |
| 20260506155326 | 49 | 108 | 1.0 | 3.0 | 0.00 | 0.00 | 0.00 | 61 | 1014.2 |
| 20260506153439 | 48 | 54 | 0.0 | 1.0 | 0.00 | 0.00 | 0.00 | 61 | 1014.1 |
| 20260506152937 | 48 | 276 | 0.0 | 1.0 | 0.00 | 0.00 | 0.00 | 63 | 1014.5 |
| 20260506152433 | 48 | 35 | 1.0 | 1.0 | 0.00 | 0.00 | 0.00 | 66 | 1014.0 |
| 20260506151932 | 47 | 71 | 0.0 | 0.0 | 0.00 | 0.00 | 0.00 | 69 | 1014.1 |
| 20260506151429 | 47 | 143 | 0.0 | 0.0 | 0.00 | 0.00 | 0.00 | 69 | 1014.2 |
| 20260506150926 | 47 | 144 | 0.0 | 0.0 | 0.00 | 0.00 | 0.00 | 71 | 1013.8 |
| 20260506150422 | 47 | 107 | 0.0 | 0.0 | 0.00 | 0.00 | 0.00 | 69 | 1014.1 |